Regional Weather Roundup
Issued by NWS

Home | Current Version | Previous Version | Text Only | Print | Product List | Glossary On
Versions: 1 2 3 4 5 6 7 8 9 10 11 12 13 14 15 16 17 18 19 20 21 22 23 24 25 26 27 28 29 30 31 32 33 34 35 36 37 38 39 40 41 42 43 44 45 46 47 48 49 50
904
ASUS44 KJAN 180903
RWRMS

MISSISSIPPI HOURLY WEATHER ROUNDUP
NATIONAL WEATHER SERVICE JACKSON MS
400 AM CDT SAT APR 18 2015

NOTE: "FAIR: INDICATES FEW OR NO CLOUDS BELOW 12,000 FEET WITH NO
SIGNIFICANT WEATHER AND/OR OBSTRUCTIONS TO VISIBILITY.

MSZ001>002-007>008-010>013-018>021-025>028-034>036-181000-
NORTHWEST MISSISSIPPI

CITY           SKY/WX    TMP DP  RH WIND       PRES   REMARKS
CLARKSDALE       N/A     64  64 100 CALM      29.99S
CLEVELAND      FAIR      64  64 100 E3        29.96S
GREENWOOD      CLOUDY    62  59  90 CALM      29.97R
GREENVILLE     CLOUDY    65  63  93 NE6       29.95S
OLIVE BRANCH     N/A     57 N/A N/A CALM      30.00S VSB 1/4
OXFORD         FOG       57  57 100 CALM      30.00F VSB 1/2
TUNICA         CLOUDY    63  61  94 CALM      29.99S
$$

MSZ003>006-009-014>017-022>024-029>033-037>039-181000-
NORTHEAST MISSISSIPPI

CITY           SKY/WX    TMP DP  RH WIND       PRES   REMARKS
COLUMBUS AFB   CLOUDY    62  62 100 NE6       29.97F
CORINTH        FOG       59  57  94 CALM      29.99R VSB 1/2
GOLDN TRIANGLE CLOUDY    61  57  88 CALM      29.96F VSB 1/2
STARKVILLE     CLOUDY    61  61 100 NE5       29.97S
TUPELO         FOG       61  59  93 E5        29.98S VSB 3/4
$$

MSZ040-058-181000-
CENTRAL MISSISSIPPI

CITY           SKY/WX    TMP DP  RH WIND       PRES   REMARKS
JACKSON INTL   CLOUDY    66  62  87 E6        29.96R
JACKSON HAWKNS CLOUDY    66  62  87 SE8       29.96R
MERIDIAN KEY   CLOUDY    65  62  90 NE3       29.96R
MERIDIAN NAS   CLOUDY    64  62  93 NE5       29.97R
RAYMOND        CLOUDY    68  63  83 SE7       29.96R
VICKSBURG      CLOUDY    67  64  90 SE7       29.95R
$$

MSZ059>079-181000-
SOUTH MISSISSIPPI

CITY           SKY/WX    TMP DP  RH WIND       PRES   REMARKS
BROOKHAVEN     CLOUDY    66  66 100 CALM      29.96F
HATTIESBURG    CLOUDY    66  64  93 N5        29.96R
MCCOMB         CLOUDY    67  67 100 NE5       29.93F FOG
NATCHEZ        CLOUDY    66  63  88 CALM      29.94F
PINE BELT      CLOUDY    64  61  88 NE3       29.96S
$$

MSZ080>082-181000-
COASTAL MISSISSIPPI

CITY           SKY/WX    TMP DP  RH WIND       PRES   REMARKS
BILOXI         FOG       70  70 100 NE3       29.90S VSB 1/2
PASCAGOULA     FOG       68  68 100 CALM      29.92R VSB 1/4
GULFPORT       FOG       69  68  96 N3        29.90S VSB 1/2
$$



USA.gov is the U.S. government's official web portal to all federal, state and local government web resources and services.